Latest Weather Forecast - Wednesday 5th August 2020 (6 am)

Forecast Period: 

6:00 am 5th August 2020  to 12:00 pm 5th August 2020 

Synopsis:

A Tropical wave is approaching the islands

Forecast:

Partly cloudy to cloudy and slightly hazy with scattered showers.

   Weather    Advisory/Warning:

None
Winds:

ENE - E at 10 - 25 km/h (6 – 16 mph) 

Sea Conditions:

Slight to moderate in open water; swells (1.0 m – 1.5 m)

 Marine 

Advisory/Warning:

None 

Upcoming Tides:
High: 9:39 am

 7:03 pm

Low: 12:15 pm

****

Aviation WX

[Source: ADDS]
METAR
TVSA 242000Z 00000KT 9999 SCT020 30/25 Q1014 NOSIG =
TVSA 241700Z 2418/2518 07006KT 9999 SCT018 TEMPO 2418/2421 5000 TSRA BKN014 FEW015CB
TAF
TVSA 241700Z 2418/2518 07006KT 9999 SCT018 TEMPO 2418/2421 5000 TSRA BKN014 FEW015CB =
SR / SS: 09:53 / 21:59 UTC (Sunrise Sunset 2020-09-24)